Regional Weather Roundup
Issued by NWS

Home | Current Version | Previous Version | Text Only | Print | Product List | Glossary Off
Versions: 1 2 3 4 5 6 7 8 9 10 11 12 13 14 15 16 17 18 19 20 21 22 23 24 25 26 27 28 29 30 31 32 33 34 35 36 37 38 39 40 41 42 43 44 45 46 47 48 49 50

000
ASUS43 KLMK 182110
RWRKY
KENTUCKY REGIONAL WEATHER ROUNDUP
NATIONAL WEATHER SERVICE LOUISVILLE KY
500 PM EDT FRI AUG 18 2017

NOTE "FAIR" INDICATES FEW OR NO CLOUDS BELOW 12,000 FEET
WITH NO SIGNIFICANT WEATHER AND/OR OBSTRUCTIONS TO VISIBILITY.

KYZ001>023-026-027-061>063-070>075-182200-
WESTERN AND SOUTH CENTRAL KENTUCKY

CITY           SKY/WX    TMP DP  RH WIND       PRES   REMARKS
PADUCAH        SUNNY     89  62  40 W6        29.94F
HENDERSON      MOSUNNY   84  67  56 W8        29.95F
OWENSBORO      SUNNY     86  65  49 NW8       29.95S
HOPKINSVILLE   SUNNY     86  64  47 W10       29.95F
BOWLING GREEN  SUNNY     85  62  46 SW8       29.95F
GLASGOW        MOSUNNY   85  63  46 W5        29.96F
$$

KYZ024-025-028>034-038-045-046-053-182200-
NORTH CENTRAL KENTUCKY

CITY           SKY/WX    TMP DP  RH WIND       PRES   REMARKS
LOUISVILLE/SDF PTSUNNY   87  63  44 W13G20    29.92S
LOUISVILLE/LOU PTSUNNY   85  63  47 NW8       29.92F
FORT KNOX      MOSUNNY   83  64  51 NW8       29.93S
$$

KYZ035>037-039>044-047>052-055>060-089>105-182200-
NORTHEAST KENTUCKY

CITY           SKY/WX    TMP DP  RH WIND       PRES   REMARKS
LEXINGTON      MOSUNNY   83  63  50 W6        29.94F
COVINGTON      MOSUNNY   84  64  50 W15       29.91F
FRANKFORT      MOSUNNY   85  61  44 W12G17    29.92F
$$

KYZ054-064>069-076>088-106>120-182200-
SOUTHEAST KENTUCKY

CITY           SKY/WX    TMP DP  RH WIND       PRES   REMARKS
JACKSON        SUNNY     83  64  52 NW12G18   29.95S
LONDON         SUNNY     84  62  47 W10       29.96F
SOMERSET       SUNNY     81  61  50 W10       29.97F
MIDDLESBORO    SUNNY     85  66  53 NW7       29.96S
MONTICELLO     PTCLDY    82  68  62 NW10      29.98F
$$





USA.gov is the U.S. government's official web portal to all federal, state and local government web resources and services.